Showing default

IRIDIUM 124, 42810

Orbit data source: Space-Track

IRIDIUM 124, 42810 is a payload satellite owned by Iridium (US) in LEO that was launched on Sun, 25 Jun 2017 UTC via an FALCON 9 launch vehicle from the Air Force Western Test Range (AFWTR). Payloads include a variety of satellites, spacecraft, and rockets equipped with specific instruments for various scientific and technological missions. These include communications satellites like Starlink; space stations such as the ISS; scientific satellites like the Hubble; Earth observation satellites from companies like Planet Labs, Umbra, and HawkEye 360; GPS; miniature CubeSats for education and research; and military/defense satellites.

Loading next visibility...
IRIDIUM 124 details
Identifier
42810, 2017-039H
Orbit
LEO
Last TLE update10 hours ago
Origin
Flag of USIridium (US)
ManufacturerOATK SSG Gilbert
MissionOperational Commercial Communications
Bus & MotorELITEBUS, Unknown motor
Mass860 kg wet, 700 kg dry
Launch date (UTC)
2017-06-25 (7 years ago)
Launch vehicle
FALCON 9
Launch site
Air Force Western Test Range (AFWTR)
Object type
Payload
Rocket body
Debris
Shape & HBRTrap Box + 2 Pan, 9.4 m
Radar Cross Section14.423 m², Large (>1 m²)

Expand to show TLE details & history

TLE from 10 hours ago
0 IRIDIUM 124
1 42810U 17039H   24347.94155277  .00000046  00000-0  78036-5 0  9994
2 42810  86.4509 160.8061 0001643 101.3718 258.7667 14.43279260395608
Epoch: 2024-12-12T22:35Z
Definitive object data (Epoch: 2024-12-12T22:35:50.159Z)
Latitude-0.00007°
Longitude99.73244°
Altitude750.977 km
Speed7.479 km/s
True Right ascension10h 43m 13s
True Declination0° 00' 00"
Sunlit
Object was in daylight at TLE epoch
Visualization TLE readout
Latitude-84.30982°
Longitude61.31104°
Altitude777.48 km
Speed7.464 km/s
Apparent Right ascension18h 26m 08s
Apparent Declination-69° 10' 31"
Sunlit
Object is in daylight
Visualization observer readout
Local Sidereal Time06:40:39
Azimuth177.365° S
Elevation-60.677°
Doppler factor1
Orbital elements
Apogee altitude745.805 km
Perigee altitude743.465 km
Semi-major axis7,122.772 km
Eccentricity0.0001643
Inclination86.4509°
RAAN160.8061°
Arg. of periapsis101.3718°
True anomaly258.74823°
Mean anomaly258.7667°
Eccentric anomaly258.75747°
Mean motion3.61052 °/min
BSTAR0.0000078036
Orbital period99.71 mins
Loading maneuver chart data...
Loading historical data...
Loading historical data...
Loading historical data...
Loading historical data...
Loading historical data...
Loading historical data...
Loading historical data...

IRIDIUM 124 Visibility forecast

Observer location: undefined°, undefined

Span
Click to sort rows by Start time (UTC) header in descending order
Start Az.
Max El. time (UTC)
Max El. Az.
Max El.
End time (UTC)
End Az.
9 mins2024-12-13 12:01:06.321Z166.021° S2024-12-13 12:05:06.321Z114.86° SE39.754°2024-12-13 12:10:06.321Z11.297° NNE
8 mins2024-12-14 00:09:06.321Z346.054° N2024-12-14 00:12:06.321Z275.415° WNW42.053°2024-12-14 00:17:06.321Z190.258° SSW
|